Вернуться в каталог

STARLINK-30350

АктивенСвязьVLEO
NORAD 57746·PAYLOAD·🇺🇸 United States

Запущен Sep 1, 2023 с Cape Canaveral Space Force Station

Loading…

Ближайшие Пролёты (ближайшие 24 часа)

TLE

СвежийSource: CelesTrak SupGP

Эпоха: Sep 14, 2026, 22:10 UTC

1 57746C 23131Q   26257.92409722 -.00028340  00000+0 -10264-2 0  2576
2 57746  43.0020 180.3699 0001330 264.0612 220.1579 15.27595254    16

Отслеживайте STARLINK-30350 в реальном времени с AllMySat

Download on the App Store